EW8836 Weather Reports


time (UTC)temp
C
wind
direction
speed
KPH
gust
KPH
rain 1hr
cm
rain 24hr
cm
rain mn
cm
humidity
%
barometer
mb
20260506180105 12 343 0.0 1.6 0.00 0.43 0.43 90 1010.2
20260506174559 12 77 0.0 1.6 0.00 0.43 0.43 92 1010.0
20260506173127 12 87 0.0 3.2 0.00 0.43 0.43 92 1009.9
20260506171549 12 72 0.0 3.2 0.00 0.43 0.43 92 1009.9
20260506170105 12 272 0.0 1.6 0.00 0.43 0.43 91 1009.8
20260506164555 13 62 0.0 4.8 0.00 0.43 0.43 90 1009.6
20260506163106 14 56 0.0 3.2 0.05 0.43 0.43 92 1009.6
20260506161612 13 300 0.0 4.8 0.08 0.43 0.43 92 1009.5
20260506160111 13 328 0.0 3.2 0.15 0.43 0.43 93 1009.6
20260506154601 13 82 0.0 1.6 0.23 0.48 0.43 97 1009.4
20260506153105 11 71 0.0 3.2 0.20 0.43 0.38 96 1009.5
20260506151556 11 72 0.0 1.6 0.15 0.38 0.33 96 1009.5
20260506150109 11 66 0.0 1.6 0.15 0.33 0.28 95 1009.6
20260506144613 11 358 0.0 1.6 0.20 0.23 0.20 94 1009.6
20260506143053 10 86 0.0 1.6 0.18 0.23 0.18 93 1009.4
20260506141601 11 145 0.0 6.4 0.18 0.23 0.18 90 1009.3
20260506140127 12 28 0.0 6.4 0.10 0.15 0.10 85 1009.2
20260506134554 13 102 0.0 4.8 0.00 0.05 0.00 81 1009.3
20260506133133 15 93 1.6 8.0 0.00 0.05 0.00 75 1009.2
20260506131600 16 268 0.0 12.9 0.00 0.05 0.00 67 1008.7
20260506130140 16 263 6.4 11.3 0.00 0.05 0.00 66 1008.6
20260506124602 16 266 3.2 11.3 0.00 0.05 0.00 72 1008.5
20260506123049 16 249 6.4 17.7 0.00 0.05 0.00 69 1008.6
20260506121553 16 229 6.4 11.3 0.00 0.05 0.00 70 1008.6
20260506120052 16 180 4.8 14.5 0.00 0.05 0.00 70 1008.6
20260506114544 16 231 6.4 12.9 0.00 0.05 0.00 71 1008.6
20260506113059 16 224 4.8 12.9 0.00 0.05 0.00 72 1008.5
20260506111554 16 248 8.0 16.1 0.00 0.05 0.00 74 1008.7
20260506110006 15 214 4.8 14.5 0.00 0.05 0.00 75 1008.8
20260506104603 15 139 8.0 17.7 0.00 0.05 0.00 76 1008.9
20260506103104 15 221 8.0 14.5 0.00 0.05 0.00 77 1009.0
20260506101600 15 221 6.4 12.9 0.00 0.05 0.00 77 1009.0
20260506100110 15 247 4.8 14.5 0.00 0.05 0.00 78 1008.9
20260506094606 14 141 4.8 14.5 0.00 0.05 0.00 80 1008.8
20260506093104 13 275 4.8 16.1 0.00 0.05 0.00 80 1008.6
20260506091558 13 255 8.0 19.3 0.00 0.05 0.00 80 1008.9
20260506090050 13 254 8.0 20.9 0.00 0.05 0.00 82 1008.7
20260506084605 12 239 4.8 16.1 0.00 0.05 0.00 84 1008.5
20260506083100 12 247 6.4 14.5 0.00 0.05 0.00 85 1008.5
20260506081604 12 241 6.4 14.5 0.00 0.05 0.00 86 1008.4
20260506073101 11 270 6.4 12.9 0.00 0.05 0.00 90 1008.4
20260506071601 11 243 4.8 9.7 0.00 0.05 0.00 92 1008.4
20260506070103 10 236 0.0 4.8 0.00 0.05 0.00 94 1008.2
20260506061548 10 248 0.0 6.4 0.00 0.05 0.00 95 1007.8
20260506044556 9 221 0.0 4.8 0.00 0.10 0.00 95 1007.7
20260506043110 9 250 0.0 6.4 0.00 0.10 0.00 95 1007.6
20260506041554 9 230 1.6 8.0 0.00 0.10 0.00 95 1007.5
20260506034618 9 218 3.2 8.0 0.00 0.13 0.00 95 1007.3
20260506033052 9 238 1.6 8.0 0.00 0.13 0.00 95 1007.5
20260506031555 9 233 1.6 6.4 0.00 0.13 0.00 95 1007.6
20260506030048 9 220 1.6 4.8 0.00 0.13 0.00 94 1007.6
20260506024552 9 247 0.0 9.7 0.00 0.13 0.00 95 1007.6
20260506023106 9 214 1.6 9.7 0.00 0.13 0.00 94 1007.7
20260506021546 9 222 4.8 12.9 0.00 0.13 0.00 94 1007.6
20260506020100 9 207 3.2 11.3 0.00 0.13 0.00 95 1007.6
20260506014605 9 250 4.8 11.3 0.00 0.15 0.00 95 1007.6
20260506013111 8 247 3.2 11.3 0.00 0.15 0.00 95 1007.7
20260506011600 8 248 4.8 9.7 0.00 0.15 0.00 95 1007.9
20260506010112 8 202 1.6 6.4 0.00 0.15 0.00 94 1008.1
20260506004506 9 236 0.0 4.8 0.00 0.15 0.00 94 1008.3
20260506003107 9 226 1.6 6.4 0.00 0.15 0.00 94 1008.3
20260506001554 9 252 3.2 11.3 0.00 0.15 0.00 93 1008.5
20260506000051 9 245 3.2 9.7 0.00 0.15 0.00 94 1008.7
20260505234600 9 229 0.0 8.0 0.00 0.23 0.00 94 1008.8
20260505233124 9 240 4.8 9.7 0.00 0.23 0.00 94 1008.6
20260505231557 9 198 1.6 8.0 0.00 0.23 0.00 94 1008.6
20260505230100 9 228 1.6 8.0 0.00 0.23 0.00 93 1008.7
20260505224558 10 227 3.2 8.0 0.00 0.33 0.00 93 1008.9
20260505223052 10 215 1.6 11.3 0.00 0.33 0.00 92 1008.8
20260505221557 10 222 1.6 6.4 0.00 0.33 0.00 92 1008.8
20260505220104 10 217 0.0 4.8 0.00 0.33 0.00 91 1009.1
20260505214619 10 232 0.0 3.2 0.00 0.36 0.33 91 1009.2
20260505213109 10 188 0.0 3.2 0.00 0.36 0.33 92 1009.3
20260505211554 10 215 0.0 1.6 0.00 0.36 0.33 91 1009.4
20260505210107 10 225 0.0 1.6 0.00 0.36 0.33 91 1009.4
20260505204557 10 251 0.0 6.4 0.00 0.51 0.33 91 1009.4
20260505203103 10 221 0.0 6.4 0.00 0.51 0.33 91 1009.3
20260505201559 10 188 1.6 8.0 0.00 0.51 0.33 92 1009.0
20260505200056 10 233 0.0 6.4 0.00 0.51 0.33 90 1008.7
20260505194603 10 213 1.6 6.4 0.00 0.61 0.33 90 1008.7
20260505193057 10 245 1.6 4.8 0.00 0.61 0.33 89 1008.7
20260505191601 11 238 0.0 3.2 0.00 0.61 0.33 87 1008.8
20260505190056 11 211 0.0 6.4 0.00 0.61 0.33 86 1008.6
20260505184549 12 239 1.6 6.4 0.00 0.61 0.33 84 1008.6
20260505183148 12 240 0.0 4.8 0.00 0.61 0.33 83 1008.6
20260505181553 13 247 1.6 12.9 0.00 0.61 0.33 82 1008.3